When you browse on this site, cookies collect data to enhance your experience and personalize the content and advertising you see.
Visit our Privacy Policy to learn more. By continuing to use the site, you agree to this use of cookies and data.
  • In Hungary
  • List of Countries
  • For 7 days
  • Water Temperature
  • Weather Map
  • News
  • Weather Widgets
  • user-avatar
    Login

    Hourly Weather Durham

    Today, 3 June, Wednesday

    Time Temperature Precipitation Wind Pressure Humidity
    00:00 +12°C° 0 mm 3 mps 755 mmHg 92%
    01:00 +12°C° 0.6 mm 4 mps 754 mmHg 93%
    02:00 +12°C° 0.6 mm 4 mps 754 mmHg 94%
    03:00 +12°C° 0.6 mm 5 mps 753 mmHg 95%
    04:00 +10°C° 1.1 mm 6 mps 753 mmHg 94%
    05:00 +10°C° 1.1 mm 7 mps 754 mmHg 94%
    06:00 +9°C° 1.1 mm 8 mps 754 mmHg 93%
    07:00 +9°C° 0.3 mm 8 mps 754 mmHg 92%
    08:00 +9°C° 0.3 mm 8 mps 754 mmHg 90%
    09:00 +9°C° 0.3 mm 7 mps 754 mmHg 88%
    10:00 +9°C° 0 mm 7 mps 754 mmHg 85%
    11:00 +10°C° 0 mm 8 mps 754 mmHg 81%
    12:00 +10°C° 0 mm 8 mps 754 mmHg 78%
    13:00 +10°C° 0 mm 8 mps 753 mmHg 75%
    14:00 +11°C° 0 mm 7 mps 753 mmHg 72%
    15:00 +11°C° 0 mm 7 mps 753 mmHg 70%
    16:00 +11°C° 0.1 mm 7 mps 753 mmHg 73%
    17:00 +10°C° 0.1 mm 7 mps 752 mmHg 76%
    18:00 +10°C° 0.1 mm 6 mps 752 mmHg 79%
    19:00 +9°C° 0.1 mm 6 mps 752 mmHg 81%
    20:00 +9°C° 0.1 mm 6 mps 752 mmHg 84%
    21:00 +8°C° 0.1 mm 6 mps 752 mmHg 87%
    22:00 +8°C° 0.2 mm 6 mps 752 mmHg 87%
    23:00 +8°C° 0.2 mm 6 mps 751 mmHg 88%

    Tomorrow, 4 June, Thursday

    Time Temperature Precipitation Wind Pressure Humidity
    00:00 +8°C° 0.2 mm 7 mps 751 mmHg 88%
    01:00 +7°C° 0.1 mm 6 mps 751 mmHg 87%
    02:00 +5°C° 0.1 mm 6 mps 750 mmHg 87%
    03:00 +6°C° 0.1 mm 5 mps 750 mmHg 87%
    04:00 +6°C° 0 mm 5 mps 749 mmHg 85%
    05:00 +6°C° 0 mm 5 mps 749 mmHg 83%
    06:00 +7°C° 0 mm 5 mps 749 mmHg 81%
    07:00 +8°C° 0 mm 5 mps 748 mmHg 75%
    08:00 +9°C° 0 mm 5 mps 748 mmHg 68%
    09:00 +10°C° 0 mm 5 mps 748 mmHg 62%
    10:00 +10°C° 0 mm 5 mps 747 mmHg 62%
    11:00 +12°C° 0 mm 4 mps 747 mmHg 61%
    12:00 +12°C° 0 mm 4 mps 747 mmHg 60%
    13:00 +12°C° 0 mm 4 mps 746 mmHg 60%
    14:00 +12°C° 0 mm 3 mps 746 mmHg 61%
    15:00 +12°C° 0 mm 3 mps 745 mmHg 61%
    16:00 +13°C° 0.4 mm 2 mps 745 mmHg 66%
    17:00 +12°C° 0.4 mm 2 mps 745 mmHg 72%
    18:00 +10°C° 0.4 mm 2 mps 744 mmHg 77%
    19:00 +9°C° 0.5 mm 2 mps 744 mmHg 80%
    20:00 +9°C° 0.5 mm 2 mps 744 mmHg 83%
    21:00 +8°C° 0.5 mm 2 mps 744 mmHg 85%
    22:00 +8°C° 0.1 mm 2 mps 744 mmHg 86%
    23:00 +7°C° 0.1 mm 2 mps 743 mmHg 86%

    Day after tomorrow, 5 June, Friday

    Time Temperature Precipitation Wind Pressure Humidity
    00:00 +7°C° 0.1 mm 3 mps 743 mmHg 86%
    01:00 +7°C° 0 mm 3 mps 743 mmHg 87%
    02:00 +6°C° 0 mm 4 mps 742 mmHg 87%
    03:00 +5°C° 0 mm 4 mps 742 mmHg 87%
    04:00 +5°C° 0 mm 5 mps 742 mmHg 86%
    05:00 +6°C° 0 mm 5 mps 742 mmHg 85%
    06:00 +6°C° 0 mm 5 mps 741 mmHg 85%
    07:00 +7°C° 0 mm 6 mps 741 mmHg 76%
    08:00 +8°C° 0 mm 6 mps 741 mmHg 68%
    09:00 +9°C° 0 mm 7 mps 741 mmHg 60%
    10:00 +10°C° 0.2 mm 7 mps 740 mmHg 60%
    11:00 +10°C° 0.2 mm 7 mps 740 mmHg 60%
    12:00 +11°C° 0.2 mm 7 mps 739 mmHg 60%
    13:00 +11°C° 0.3 mm 8 mps 739 mmHg 59%
    14:00 +12°C° 0.3 mm 8 mps 738 mmHg 58%
    15:00 +12°C° 0.3 mm 9 mps 738 mmHg 57%
    16:00 +11°C° 0.1 mm 9 mps 737 mmHg 58%
    17:00 +10°C° 0.1 mm 9 mps 737 mmHg 60%
    18:00 +10°C° 0.1 mm 9 mps 736 mmHg 61%
    19:00 +8°C° 0.1 mm 10 mps 736 mmHg 63%
    20:00 +7°C° 0.1 mm 11 mps 736 mmHg 64%
    21:00 +6°C° 0.1 mm 11 mps 736 mmHg 66%
    22:00 +6°C° 0.6 mm 11 mps 735 mmHg 74%
    23:00 +5°C° 0.6 mm 10 mps 735 mmHg 81%

    6 June, Saturday

    Time Temperature Precipitation Wind Pressure Humidity
    00:00 +5°C° 0.6 mm 10 mps 734 mmHg 89%
    01:00 +5°C° 0.1 mm 9 mps 734 mmHg 89%
    02:00 +6°C° 0.1 mm 8 mps 734 mmHg 90%
    03:00 +6°C° 0.1 mm 7 mps 734 mmHg 90%
    04:00 +6°C° 0 mm 7 mps 733 mmHg 88%
    05:00 +8°C° 0 mm 7 mps 733 mmHg 87%
    06:00 +8°C° 0 mm 7 mps 733 mmHg 85%
    07:00 +8°C° 0.1 mm 9 mps 733 mmHg 78%
    08:00 +9°C° 0.1 mm 10 mps 733 mmHg 71%
    09:00 +11°C° 0.1 mm 11 mps 733 mmHg 64%
    10:00 +9°C° 0.3 mm 11 mps 734 mmHg 71%
    11:00 +9°C° 0.3 mm 11 mps 734 mmHg 78%
    12:00 +8°C° 0.3 mm 11 mps 734 mmHg 85%
    13:00 +8°C° 0.4 mm 11 mps 734 mmHg 84%
    14:00 +9°C° 0.4 mm 10 mps 735 mmHg 83%
    15:00 +11°C° 0.4 mm 10 mps 735 mmHg 81%
    16:00 +11°C° 0.4 mm 10 mps 736 mmHg 82%
    17:00 +10°C° 0.4 mm 9 mps 737 mmHg 83%
    18:00 +10°C° 0.4 mm 9 mps 738 mmHg 84%
    19:00 +10°C° 0.1 mm 8 mps 738 mmHg 86%
    20:00 +9°C° 0.1 mm 7 mps 739 mmHg 88%
    21:00 +8°C° 0.1 mm 7 mps 740 mmHg 89%
    22:00 +8°C° 0.1 mm 6 mps 740 mmHg 90%
    23:00 +8°C° 0.1 mm 6 mps 741 mmHg 90%

    7 June, Sunday

    Time Temperature Precipitation Wind Pressure Humidity
    00:00 +8°C° 0.1 mm 5 mps 741 mmHg 91%
    01:00 +8°C° 0 mm 5 mps 741 mmHg 89%
    02:00 +8°C° 0 mm 5 mps 741 mmHg 88%
    03:00 +8°C° 0 mm 4 mps 741 mmHg 87%
    04:00 +8°C° 0.3 mm 5 mps 741 mmHg 88%
    05:00 +8°C° 0.3 mm 5 mps 741 mmHg 89%
    06:00 +9°C° 0.3 mm 6 mps 741 mmHg 91%
    07:00 +9°C° 0.6 mm 6 mps 741 mmHg 91%
    08:00 +9°C° 0.6 mm 6 mps 742 mmHg 91%
    09:00 +9°C° 0.6 mm 6 mps 742 mmHg 91%
    10:00 +10°C° 0.9 mm 7 mps 742 mmHg 91%
    11:00 +10°C° 0.9 mm 7 mps 742 mmHg 92%
    12:00 +10°C° 0.9 mm 7 mps 742 mmHg 92%
    13:00 +10°C° 0.6 mm 8 mps 743 mmHg 92%
    14:00 +10°C° 0.6 mm 8 mps 743 mmHg 92%
    15:00 +10°C° 0.6 mm 8 mps 744 mmHg 92%
    16:00 +10°C° 0.2 mm 8 mps 744 mmHg 92%
    17:00 +10°C° 0.2 mm 8 mps 745 mmHg 92%
    18:00 +10°C° 0.2 mm 7 mps 745 mmHg 93%
    19:00 +10°C° 0.3 mm 7 mps 746 mmHg 93%
    20:00 +10°C° 0.3 mm 6 mps 747 mmHg 94%
    21:00 +10°C° 0.3 mm 6 mps 747 mmHg 94%
    22:00 +10°C° 0.5 mm 6 mps 748 mmHg 94%
    23:00 +10°C° 0.5 mm 6 mps 748 mmHg 94%

    8 June, Monday

    Time Temperature Precipitation Wind Pressure Humidity
    00:00 +10°C° 0.5 mm 6 mps 749 mmHg 94%
    01:00 +10°C° 0.4 mm 6 mps 749 mmHg 94%
    02:00 +10°C° 0.4 mm 6 mps 750 mmHg 94%
    03:00 +10°C° 0.4 mm 6 mps 750 mmHg 94%
    04:00 +10°C° 0.2 mm 5 mps 750 mmHg 94%
    05:00 +10°C° 0.2 mm 5 mps 751 mmHg 94%
    06:00 +10°C° 0.2 mm 5 mps 752 mmHg 94%
    07:00 +12°C° 0.1 mm 5 mps 752 mmHg 90%
    08:00 +12°C° 0.1 mm 5 mps 753 mmHg 87%
    09:00 +13°C° 0.1 mm 6 mps 753 mmHg 84%
    10:00 +13°C° 0.2 mm 6 mps 754 mmHg 83%
    11:00 +14°C° 0.2 mm 6 mps 754 mmHg 83%
    12:00 +14°C° 0.2 mm 6 mps 754 mmHg 82%
    13:00 +13°C° 0.2 mm 6 mps 754 mmHg 83%
    14:00 +13°C° 0.2 mm 6 mps 754 mmHg 85%
    15:00 +12°C° 0.2 mm 7 mps 755 mmHg 86%
    16:00 +11°C° 0.1 mm 6 mps 755 mmHg 86%
    17:00 +11°C° 0.1 mm 6 mps 755 mmHg 86%
    18:00 +11°C° 0.1 mm 6 mps 755 mmHg 86%
    19:00 +10°C° 0 mm 6 mps 755 mmHg 87%
    20:00 +10°C° 0 mm 5 mps 756 mmHg 88%
    21:00 +10°C° 0 mm 4 mps 756 mmHg 90%
    22:00 +10°C° 0 mm 4 mps 756 mmHg 90%
    23:00 +10°C° 0 mm 4 mps 756 mmHg 90%
    Show more